STARLINK-37051, 68080

Orbit data source: Space-Track

STARLINK-37051, 68080 is a payload satellite owned by SpaceX/Seattle (US) in LEO that was launched on Wed, 04 Mar 2026 UTC via an FALCON 9 launch vehicle from the Air Force Eastern Test Range (AFETR). Payload-class satellites include a variety of spacecraft equipped with specific instruments for various scientific and technological missions. These include communications satellites like Starlink; space stations such as the ISS; scientific satellites like the Hubble; Earth observation satellites from companies like Planet Labs, Umbra, and HawkEye 360; GPS; miniature CubeSats for education and research; and military/defense satellites.

Loading next visibility...
Identifier
68080, 2026-042M
Orbit
LEO
Country
Flag of USUS
Related business
Manufacturer
SpaceX/Seattle
Mission
Operational Commercial Communications
Bus & Motor
STARLINK V2MO, Unknown motor
Mass
575 kg wet, ~530 kg dry
Launch date (UTC)
2026-03-04 (2 months ago)
Launch vehicle
FALCON 9
Launch site
Air Force Eastern Test Range (AFETR)
Object type
Payload
Rocket body
Debris
Shape & HBR
Box + 2 Pan, 17.7 m
Radar Cross Section
36.964 m²

Expand to show TLE details & history
Last TLE update: 15 hours ago

TLE from 15 hours ago
0 STARLINK-37051
1 68080U 26042M   26119.01815250 -.00778892  00000-0 -84231-2 0  9990
2 68080  53.1590 304.0037 0001857  43.0298 317.0863 15.65372119 10022
Epoch: 2026-04-29T00:26Z
TLE epoch observation values (Epoch: 2026-04-29T00:26:08.375Z)
Latitude
Longitude
80.48366°
Altitude
372.164 km
Speed
7.688 km/s
True Right ascension
20h 16m 00s
True Declination
0° 00' 00"
Sunlit
Object was in daylight at epoch
Visualization orbit readout
Latitude
Unknown
Longitude
Unknown
Altitude
Unknown
Speed
Unknown
Apparent Right ascension
Unknown
Apparent Declination
Unknown
Sunlit
N/A
Visualization observer readout
Local Sidereal Time
22:53:05
Azimuth
Unknown
Elevation
Unknown
Doppler factor
Unknown
Orbital elements
Apogee altitude
373.683 km
Perigee altitude
371.176 km
Semi-major axis
6,750.566 km
Eccentricity
0.00019
Inclination
53.159°
RAAN
304.0037°
Arg. of periapsis
43.0298°
True anomaly
317.07181°
Mean anomaly
317.0863°
Eccentric anomaly
317.07905°
Mean motion
3.91321 °/min
Orbital period
92 mins
BSTAR
-0.0084231
Loading maneuver chart data...
Computing Atmospheric mass density...
Loading historical data...
Loading historical data...
Loading historical data...
Loading historical data...
Loading historical data...
Loading historical data...
Loading historical data...

Documentation

Showing up to 5 results
|